TimeCDT,TemperatureF,Dew PointF,Humidity,Sea Level PressureIn,VisibilityMPH,Wind Direction,Wind SpeedMPH,Gust SpeedMPH,PrecipitationIn,Events,Conditions,WindDirDegrees,DateUTC
12:15 AM,57.2,42.8,59,30.02,10.0,North,21.9,33.4,N/A,,Overcast,10,2013-05-11 05:15:00
12:35 AM,55.4,42.8,63,30.02,10.0,North,26.5,33.4,N/A,,Overcast,360,2013-05-11 05:35:00
12:55 AM,53.6,41.0,62,30.04,10.0,North,24.2,35.7,N/A,,Overcast,360,2013-05-11 05:55:00
1:15 AM,51.8,37.4,58,30.05,10.0,North,21.9,33.4,N/A,,Overcast,350,2013-05-11 06:15:00
1:35 AM,50.0,33.8,54,30.06,10.0,North,21.9,31.1,N/A,,Mostly Cloudy,350,2013-05-11 06:35:00
1:55 AM,48.2,30.2,50,30.07,10.0,North,20.7,28.8,N/A,,Scattered Clouds,350,2013-05-11 06:55:00
2:15 AM,48.2,32.0,54,30.08,10.0,North,16.1,23.0,N/A,,Partly Cloudy,350,2013-05-11 07:15:00
2:35 AM,46.4,32.0,57,30.09,10.0,North,13.8,21.9,N/A,,Clear,350,2013-05-11 07:35:00
2:55 AM,44.6,30.2,57,30.09,10.0,NNW,13.8,-,N/A,,Clear,340,2013-05-11 07:55:00
3:15 AM,44.6,30.2,57,30.10,10.0,North,13.8,-,N/A,,Clear,350,2013-05-11 08:15:00
3:35 AM,42.8,30.2,61,30.11,10.0,North,11.5,-,N/A,,Clear,350,2013-05-11 08:35:00
3:55 AM,42.8,30.2,61,30.12,10.0,NNW,11.5,-,N/A,,Clear,340,2013-05-11 08:55:00
4:15 AM,42.8,30.2,61,30.12,10.0,NNW,10.4,-,N/A,,Clear,330,2013-05-11 09:15:00
4:35 AM,41.0,30.2,65,30.12,10.0,NNW,12.7,-,N/A,,Clear,330,2013-05-11 09:35:00
4:55 AM,41.0,32.0,70,30.13,10.0,NNW,15.0,-,N/A,,Clear,330,2013-05-11 09:55:00
5:15 AM,41.0,30.2,65,30.13,10.0,NNW,13.8,-,N/A,,Clear,330,2013-05-11 10:15:00
5:35 AM,41.0,30.2,65,30.14,10.0,NNW,15.0,-,N/A,,Clear,330,2013-05-11 10:35:00
5:55 AM,41.0,30.2,65,30.15,10.0,NW,12.7,-,N/A,,Clear,320,2013-05-11 10:55:00
6:15 AM,39.2,32.0,75,30.15,10.0,NNW,11.5,-,N/A,,Clear,330,2013-05-11 11:15:00
6:35 AM,39.2,32.0,75,30.16,10.0,NW,10.4,-,N/A,,Clear,320,2013-05-11 11:35:00
6:55 AM,39.2,32.0,75,30.17,10.0,NW,13.8,-,N/A,,Clear,320,2013-05-11 11:55:00
7:15 AM,41.0,32.0,70,30.18,10.0,NNW,13.8,-,N/A,,Clear,330,2013-05-11 12:15:00
7:35 AM,41.0,32.0,70,30.19,10.0,NNW,16.1,-,N/A,,Clear,340,2013-05-11 12:35:00
7:55 AM,42.8,32.0,66,30.20,10.0,NNW,17.3,24.2,N/A,,Clear,340,2013-05-11 12:55:00
8:15 AM,42.8,32.0,66,30.20,10.0,NNW,20.7,-,N/A,,Clear,340,2013-05-11 13:15:00
8:35 AM,44.6,32.0,61,30.21,10.0,NNW,19.6,26.5,N/A,,Clear,340,2013-05-11 13:35:00
8:55 AM,46.4,33.8,62,30.21,10.0,NNW,19.6,27.6,N/A,,Clear,340,2013-05-11 13:55:00
9:15 AM,46.4,32.0,57,30.22,10.0,North,20.7,31.1,N/A,,Clear,350,2013-05-11 14:15:00
9:35 AM,46.4,32.0,57,30.23,10.0,NNW,21.9,28.8,N/A,,Clear,340,2013-05-11 14:35:00
9:55 AM,48.2,32.0,54,30.23,10.0,NNW,29.9,35.7,N/A,,Partly Cloudy,330,2013-05-11 14:55:00
10:15 AM,46.4,30.2,53,30.24,10.0,NNW,27.6,36.8,N/A,,Partly Cloudy,340,2013-05-11 15:15:00
10:35 AM,48.2,28.4,46,30.24,10.0,North,27.6,34.5,N/A,,Scattered Clouds,350,2013-05-11 15:35:00
10:55 AM,46.4,26.6,46,30.25,10.0,NNW,25.3,33.4,N/A,,Mostly Cloudy,330,2013-05-11 15:55:00
11:15 AM,48.2,26.6,43,30.24,10.0,NNW,27.6,34.5,N/A,,Scattered Clouds,340,2013-05-11 16:15:00
11:35 AM,50.0,24.8,37,30.25,10.0,NNW,26.5,36.8,N/A,,Clear,330,2013-05-11 16:35:00
11:55 AM,50.0,24.8,37,30.25,10.0,North,28.8,34.5,N/A,,Clear,350,2013-05-11 16:55:00
12:15 PM,50.0,23.0,35,30.25,10.0,NNW,24.2,38.0,N/A,,Partly Cloudy,340,2013-05-11 17:15:00
12:35 PM,50.0,24.8,37,30.25,10.0,NNW,28.8,-,N/A,,Scattered Clouds,330,2013-05-11 17:35:00
12:55 PM,50.0,23.0,35,30.24,10.0,NNW,29.9,36.8,N/A,,Scattered Clouds,330,2013-05-11 17:55:00
1:15 PM,51.8,24.8,35,30.25,10.0,NNW,28.8,38.0,N/A,,Partly Cloudy,340,2013-05-11 18:15:00
1:35 PM,51.8,23.0,33,30.24,10.0,NNW,28.8,36.8,N/A,,Partly Cloudy,340,2013-05-11 18:35:00
1:55 PM,53.6,23.0,30,30.24,10.0,NNW,24.2,35.7,N/A,,Partly Cloudy,330,2013-05-11 18:55:00
2:15 PM,53.6,24.8,33,30.24,10.0,NW,23.0,33.4,N/A,,Scattered Clouds,320,2013-05-11 19:15:00
2:35 PM,53.6,23.0,30,30.24,10.0,NNW,28.8,38.0,N/A,,Scattered Clouds,330,2013-05-11 19:35:00
2:55 PM,53.6,23.0,30,30.23,10.0,NNW,26.5,36.8,N/A,,Partly Cloudy,340,2013-05-11 19:55:00
3:15 PM,53.6,23.0,30,30.23,10.0,NNW,24.2,35.7,N/A,,Clear,340,2013-05-11 20:15:00
3:35 PM,53.6,21.2,28,30.23,10.0,NW,27.6,34.5,N/A,,Clear,320,2013-05-11 20:35:00
3:55 PM,55.4,21.2,26,30.22,10.0,NNW,25.3,36.8,N/A,,Clear,330,2013-05-11 20:55:00
4:15 PM,55.4,21.2,26,30.21,10.0,NNW,28.8,-,N/A,,Clear,330,2013-05-11 21:15:00
4:35 PM,55.4,19.4,25,30.21,10.0,NNW,24.2,38.0,N/A,,Clear,340,2013-05-11 21:35:00
4:55 PM,55.4,17.6,23,30.20,10.0,NNW,29.9,36.8,N/A,,Clear,340,2013-05-11 21:55:00
5:15 PM,53.6,17.6,24,30.21,10.0,NNW,26.5,34.5,N/A,,Clear,330,2013-05-11 22:15:00
5:35 PM,55.4,17.6,23,30.21,10.0,NNW,24.2,34.5,N/A,,Clear,330,2013-05-11 22:35:00
5:55 PM,55.4,19.4,25,30.21,10.0,NNW,21.9,31.1,N/A,,Clear,330,2013-05-11 22:55:00
6:15 PM,53.6,17.6,24,30.21,10.0,NNW,24.2,29.9,N/A,,Clear,330,2013-05-11 23:15:00
6:35 PM,53.6,15.8,22,30.21,10.0,NW,20.7,29.9,N/A,,Clear,320,2013-05-11 23:35:00
6:55 PM,53.6,15.8,22,30.21,10.0,NNW,21.9,-,N/A,,Clear,330,2013-05-11 23:55:00
7:15 PM,53.6,17.6,24,30.20,10.0,NNW,21.9,-,N/A,,Clear,330,2013-05-12 00:15:00
7:35 PM,51.8,15.8,24,30.21,10.0,NNW,21.9,-,N/A,,Clear,330,2013-05-12 00:35:00
7:55 PM,51.8,15.8,24,30.20,10.0,NNW,19.6,-,N/A,,Clear,330,2013-05-12 00:55:00
8:15 PM,50.0,17.6,28,30.20,10.0,NNW,12.7,19.6,N/A,,Clear,330,2013-05-12 01:15:00
8:35 PM,48.2,17.6,30,30.21,10.0,NNW,13.8,-,N/A,,Clear,330,2013-05-12 01:35:00
8:55 PM,48.2,19.4,32,30.21,10.0,NNW,11.5,-,N/A,,Clear,330,2013-05-12 01:55:00
9:15 PM,46.4,19.4,34,30.22,10.0,NNW,9.2,-,N/A,,Clear,330,2013-05-12 02:15:00
9:35 PM,42.8,21.2,42,30.22,10.0,NNW,9.2,-,N/A,,Clear,340,2013-05-12 02:35:00
9:55 PM,42.8,21.2,42,30.23,10.0,NW,8.1,-,N/A,,Clear,320,2013-05-12 02:55:00
10:15 PM,42.8,21.2,42,30.23,10.0,NNW,9.2,-,N/A,,Clear,330,2013-05-12 03:15:00
10:35 PM,39.2,23.0,52,30.23,10.0,NNW,8.1,-,N/A,,Clear,340,2013-05-12 03:35:00
10:55 PM,39.2,23.0,52,30.23,10.0,NNW,5.8,-,N/A,,Clear,340,2013-05-12 03:55:00
11:15 PM,37.4,23.0,56,30.23,10.0,North,6.9,-,N/A,,Clear,350,2013-05-12 04:15:00
11:35 PM,37.4,23.0,56,30.23,10.0,NNW,5.8,-,N/A,,Clear,340,2013-05-12 04:35:00
11:55 PM,35.6,23.0,60,30.24,10.0,NNW,4.6,-,N/A,,Clear,330,2013-05-12 04:55:00